Temperature
6 7 7 9 10 11 12 12 12 12 13 12 12 13 14 15 16 16 17 17 18 18 17 17 16 16 16 16 16 15 15 15 15 15 15 14 14 14 14 14 14 14 14 14
6 7 9 10 11 12 12 12 12 13 13 13 13 13 14 15 15 16 17 17 18 18 17 17 16 16 16 16 16 16 15 15 15 15 15 15 15 15 15 15 15 15 14 14
7 8 10 10 11 12 12 13 13 13 12 13 13 13 14 15 16 16 17 17 17 17 17 17 16 16 16 16 16 16 16 15 15 15 15 15 15 15 15 15 15 15 15 14
7 8 9 10 11 12 12 14 14 13 12 12 13 12 14 15 15 15 16 17 17 17 17 17 16 16 16 16 16 16 16 16 15 15 15 15 15 15 15 15 15 15 15 14
7 9 9 10 11 13 13 14 14 13 12 12 13 12 14 15 15 15 16 17 17 17 17 17 16 16 16 16 16 16 16 16 16 15 15 15 15 15 15 14 14 14 14 14
8 9 9 10 11 12 13 13 13 13 12 11 13 12 14 15 16 16 16 17 17 17 17 16 16 16 15 15 15 15 15 15 15 15 15 15 15 15 14 14 14 14 14 13
7 8 9 10 11 12 12 11 10 9 9 10 14 13 14 16 16 15 15 16 16 16 16 16 15 15 15 15 15 15 15 15 15 15 15 15 14 14 14 14 14 13 13 13
7 7 9 10 11 11 11 11 10 10 9 11 13 12 14 15 15 15 15 15 15 15 15 15 15 15 15 15 15 14 14 14 14 14 14 14 14 14 14 13 13 12 12 12
8 8 9 10 10 11 11 11 12 11 12 11 12 13 15 15 15 15 15 15 15 15 14 14 14 14 14 14 14 14 13 13 13 13 13 13 13 13 13 12 12 12 11 11
10 8 9 10 10 11 11 12 10 9 10 11 12 13 13 13 14 14 14 14 14 14 13 13 13 13 13 13 13 12 12 12 12 12 12 12 12 12 12 11 11 11 11 10
10 8 8 9 9 10 11 11 11 11 11 10 11 12 14 13 13 13 13 14 14 13 13 12 12 12 11 11 11 11 11 11 11 11 11 12 11 11 11 11 10 10 10 9
11 9 8 9 10 10 11 11 11 10 9 11 10 11 14 13 13 13 14 14 13 13 12 12 11 11 10 10 10 9 9 10 10 11 11 11 11 10 10 10 10 9 8 8
11 9 7 7 8 9 10 11 11 11 10 9 9 11 13 13 14 14 13 13 13 12 12 11 11 10 10 9 9 9 9 9 10 10 10 10 10 10 9 9 9 8 7 6
10 9 8 8 9 9 9 10 11 10 8 9 10 12 13 13 13 13 13 13 12 12 11 11 10 10 9 9 8 8 9 9 10 10 10 10 9 9 9 8 8 7 6 5
9 8 8 9 10 10 10 10 10 9 9 9 11 12 12 12 12 12 12 12 12 11 11 11 10 10 9 9 8 9 9 9 10 10 9 9 9 9 8 7 6 5 4 4
9 8 8 7 9 10 9 10 10 10 10 10 10 11 11 12 12 12 11 11 11 11 10 10 10 10 9 9 9 9 9 9 9 9 9 9 8 8 7 6 5 4 3 2
8 8 7 8 9 9 8 10 10 10 11 11 10 10 10 9 10 10 10 10 10 10 9 9 10 10 10 9 9 9 9 9 9 9 9 9 8 7 6 5 4 3 2 2
8 8 6 7 8 6 9 9 10 10 10 10 10 9 9 9 9 9 9 9 8 8 8 9 9 9 10 10 9 9 9 9 9 9 9 8 8 7 5 4 3 2 1 1
9 8 8 7 7 8 9 9 9 9 8 8 8 8 8 8 8 9 8 8 7 7 7 8 8 9 9 9 9 9 9 9 9 9 8 8 7 6 5 3 2 1 1 0
9 8 7 7 7 8 7 8 9 8 7 7 7 7 7 7 6 7 7 6 6 7 7 7 8 8 9 9 9 8 8 9 9 8 8 7 6 5 4 3 1 1 0 0
7 7 7 7 7 7 6 8 8 7 5 6 6 6 5 5 5 5 5 5 5 6 6 6 7 7 7 8 8 8 8 8 8 7 7 7 6 4 3 2 1 0 0 0
7 7 7 7 6 6 6 7 5 4 5 5 4 4 4 4 4 4 4 4 4 5 5 5 6 6 6 6 7 7 7 7 7 7 6 6 5 4 3 2 1 0 0 0
6 5 5 6 5 5 5 4 4 4 3 3 3 3 3 3 3 3 3 3 4 4 4 5 5 5 5 6 6 6 6 6 6 6 6 5 4 4 3 2 2 1 0 0
5 4 5 5 6 5 5 4 3 3 2 2 2 2 2 2 2 2 2 2 3 3 4 4 4 4 5 5 5 5 5 5 5 5 5 5 4 4 3 2 1 1 1 1
4 4 4 5 4 4 4 3 2 2 1 1 1 1 1 1 1 1 1 2 2 2 3 3 3 4 4 4 5 5 5 5 5 5 4 4 4 3 3 2 2 2 2 1
3 3 3 3 2 2 2 1 1 0 0 0 0 0 0 0 0 0 1 1 1 1 2 2 3 3 3 4 4 4 4 4 4 4 4 4 3 3 3 2 2 2 2 1
Wind_Speed
2 2 6 11 12 7 9 10 11 10 11 12 12 11 9 8 7 8 8 8 7 7 8 9 8 6 5 5 5 7 8 8 6 5 5 5 4 3 3 3 4 4 3 3
3 4 7 8 11 7 7 10 10 8 11 10 9 11 11 11 11 9 10 10 9 7 8 9 8 7 6 6 6 6 7 7 6 5 4 4 4 3 3 3 3 3 1 1
3 2 5 6 8 9 8 9 10 11 9 6 5 7 12 11 12 11 10 10 9 8 9 11 10 8 6 6 6 5 6 6 5 5 4 3 3 2 2 3 2 3 3 2
0 1 5 6 7 8 5 5 8 13 10 5 7 4 10 14 13 13 11 10 10 9 8 9 10 9 7 6 4 4 4 5 5 5 5 6 5 4 3 3 3 3 4 3
2 2 5 6 5 4 3 4 6 9 6 2 6 5 5 11 12 14 12 11 11 9 7 9 10 10 8 7 5 4 4 4 4 4 4 4 4 4 4 4 3 2 2 3
4 2 1 1 2 1 4 6 6 3 1 2 7 6 4 4 8 8 10 11 10 9 8 9 10 10 9 7 5 5 5 5 5 5 4 5 6 6 5 4 2 1 1 2
4 3 2 1 4 2 4 7 4 3 2 4 6 5 4 3 6 4 2 2 3 5 7 9 11 11 10 9 7 5 6 6 6 6 5 6 6 5 5 4 3 2 1 2
4 3 1 0 1 3 5 4 2 3 5 3 3 4 2 6 8 5 3 1 2 2 4 5 8 10 10 10 8 7 7 6 7 7 6 6 6 4 4 4 3 2 2 2
4 4 2 1 2 1 4 3 2 3 1 3 5 5 3 5 6 4 3 3 3 2 3 5 6 8 9 10 9 8 8 7 6 7 7 6 6 5 5 4 3 2 2 2
3 5 4 2 1 3 3 1 1 2 1 1 5 7 5 8 7 6 6 5 4 4 3 4 5 6 7 8 8 8 8 8 7 7 6 5 6 5 4 2 2 2 2 2
2 5 5 3 3 3 2 1 2 1 2 1 0 2 3 7 8 8 7 5 5 4 3 3 4 6 7 7 7 7 8 8 7 7 7 6 5 4 3 2 3 3 2 2
1 4 4 2 2 3 4 4 4 1 2 2 1 0 4 8 8 7 5 3 3 4 4 4 5 6 6 7 6 7 7 8 7 7 7 6 6 4 3 3 4 3 3 3
1 4 5 2 1 3 4 5 5 2 0 2 1 1 3 6 5 4 3 1 1 2 4 4 5 6 7 7 7 7 7 7 7 7 7 6 5 5 4 4 4 3 3 3
4 1 1 2 1 5 5 7 6 4 3 3 5 4 2 2 1 0 1 1 2 1 2 4 6 7 8 8 8 8 8 8 8 7 7 6 5 5 5 5 4 3 3 2
3 2 2 3 3 2 2 6 9 9 7 5 5 6 4 3 4 5 5 5 4 4 3 4 6 7 8 9 8 8 8 8 8 8 7 6 6 6 5 5 4 3 3 3
2 2 2 1 1 1 3 6 8 9 9 9 9 9 6 7 7 7 7 7 6 6 5 5 5 7 9 10 10 9 9 9 8 8 7 7 7 6 5 5 4 4 3 3
1 2 1 1 2 2 5 5 7 7 5 5 7 4 6 7 8 8 8 7 7 8 7 6 6 7 8 9 11 11 10 9 9 8 8 8 7 7 6 5 5 5 4 3
2 2 1 1 1 4 1 5 4 2 2 3 3 5 7 7 8 7 5 7 8 9 9 8 6 5 6 7 9 10 10 10 9 9 8 9 8 7 7 6 6 5 4 4
1 1 1 1 3 3 4 3 3 1 2 7 6 7 8 9 8 2 8 9 9 8 8 8 7 6 3 6 8 10 10 10 9 9 9 9 9 8 8 7 6 5 4 4
2 2 2 2 2 1 4 4 4 2 2 7 7 7 8 8 5 5 12 12 10 9 8 8 8 4 1 4 7 10 10 10 10 9 9 9 9 9 8 8 6 5 5 5
2 2 3 4 3 1 3 4 3 1 1 6 7 7 7 6 5 9 12 10 9 9 9 8 7 4 1 3 6 7 8 9 8 8 8 8 8 8 8 7 6 6 6 6
1 2 2 2 3 1 6 4 4 4 5 7 8 8 8 8 9 10 10 10 10 9 8 8 6 4 2 2 4 5 6 6 7 8 8 8 8 8 8 8 7 7 7 6
2 2 2 2 1 4 6 6 5 5 6 7 8 8 8 10 10 11 10 10 9 9 7 6 5 3 1 1 3 5 5 7 8 8 8 8 8 7 8 9 9 8 7 6
2 1 2 1 2 4 4 5 6 7 7 8 8 9 9 10 11 11 10 10 10 8 7 6 6 4 3 3 4 4 6 7 8 8 8 8 9 8 8 7 7 7 7 7
2 1 2 2 2 4 4 7 8 9 8 9 9 9 10 11 12 12 11 10 9 9 7 6 6 6 5 3 4 4 6 8 8 8 8 8 8 8 8 7 7 8 8 8
2 1 0 1 4 3 5 7 8 8 9 10 10 11 10 10 12 12 10 9 9 9 9 7 7 7 5 4 5 5 6 8 8 8 8 7 7 7 7 7 6 10 10 13
Wind_Direction
138 177 190 190 201 200 173 180 187 182 167 176 193 211 223 229 229 225 232 233 217 191 154 139 138 141 150 165 167 167 167 173 166 163 167 166 173 177 177 164 168 179 201 214
135 212 215 212 210 220 206 191 181 159 164 179 197 216 222 223 224 222 225 231 226 203 159 145 145 152 165 169 174 171 167 167 166 164 162 159 157 162 157 136 128 116 91 50
164 181 201 199 199 208 209 195 172 151 156 193 190 224 226 226 223 219 223 229 233 213 181 161 160 159 160 162 168 165 157 153 154 151 144 128 110 105 130 143 131 100 79 41
63 178 180 181 193 200 185 177 156 146 148 183 191 228 216 210 215 216 215 222 227 226 196 165 158 155 154 141 125 129 130 132 136 141 155 162 162 169 150 128 115 99 85 60
122 152 164 172 183 193 145 126 134 147 170 171 189 231 251 192 203 208 206 211 217 217 191 158 152 147 137 127 124 124 123 123 126 135 147 153 140 123 108 98 105 108 104 86
88 54 29 100 82 48 107 99 88 92 167 233 207 210 273 191 189 192 193 199 203 200 182 155 144 134 128 130 137 143 145 135 126 124 123 121 121 117 120 118 121 111 105 99
79 61 17 350 112 106 149 128 112 133 183 236 198 204 248 78 82 75 82 169 179 179 165 154 148 148 147 152 159 166 156 148 137 122 108 101 104 108 116 113 106 92 75 89
122 123 142 304 125 159 203 191 119 161 182 194 153 213 250 100 90 77 56 74 93 125 135 142 153 157 155 158 162 170 164 151 137 125 116 107 101 96 94 86 81 67 67 72
131 113 123 78 351 338 195 222 339 338 217 143 187 214 185 118 127 137 131 104 96 104 119 132 142 151 158 163 168 171 158 142 132 124 120 114 105 95 90 81 74 76 74 67
102 116 137 117 298 331 332 203 104 64 63 213 192 187 185 162 156 132 113 101 95 89 101 123 145 153 157 161 165 162 152 145 136 126 118 110 100 95 95 95 94 81 72 61
99 116 135 160 202 192 184 214 247 234 328 343 27 76 56 111 115 115 109 100 97 116 135 150 153 151 148 150 156 154 147 141 140 135 129 124 115 109 107 110 101 87 77 61
42 108 127 141 78 328 285 221 219 170 270 282 322 40 82 95 92 91 94 100 110 122 139 151 155 151 151 157 162 158 150 147 147 139 132 125 121 125 128 116 98 87 83 74
50 116 123 134 231 231 253 241 241 257 313 246 220 192 125 117 126 148 164 184 107 130 151 159 163 167 171 173 172 164 158 151 143 138 137 138 143 146 140 121 107 100 97 95
343 143 110 147 149 165 192 215 221 190 184 236 227 241 217 163 180 241 14 17 15 9 187 187 183 184 182 180 175 169 165 155 150 148 150 151 150 141 126 116 111 111 115 122
350 41 48 1 15 74 201 215 215 213 213 227 252 266 291 348 11 11 7 5 353 324 289 236 205 194 185 181 178 174 169 160 155 155 158 155 140 124 118 123 125 118 113 108
20 50 66 285 219 241 256 247 235 229 231 245 267 282 328 357 7 4 355 348 331 316 300 276 236 207 191 185 182 177 173 166 160 164 164 149 138 136 141 145 141 139 132 121
115 107 73 266 126 289 258 243 232 226 228 246 260 292 359 357 353 341 334 334 326 316 306 289 263 227 204 191 181 179 174 163 165 167 160 153 152 155 156 156 153 152 151 147
155 153 162 291 290 242 104 53 39 23 21 14 12 15 13 354 323 310 343 355 334 327 321 309 290 258 217 188 174 166 160 161 167 168 163 159 158 160 160 164 164 160 155 156
291 230 248 233 257 241 117 68 36 25 70 37 24 13 4 341 317 352 32 7 339 326 318 312 302 278 219 175 161 153 157 162 169 174 169 164 162 164 166 171 168 158 152 147
284 280 278 251 264 296 76 41 6 336 124 29 17 8 357 348 338 330 351 343 333 329 325 319 314 313 163 151 144 152 163 169 180 176 167 161 163 168 172 172 165 156 152 150
200 225 234 249 248 79 16 327 326 314 65 11 8 2 354 341 309 313 325 328 328 326 325 324 329 347 23 129 140 161 171 182 174 157 154 157 163 167 167 164 162 159 157 156
199 223 215 235 231 167 11 16 40 29 10 8 360 350 336 320 315 320 324 326 328 330 334 337 340 353 21 110 151 173 182 166 149 150 154 159 164 166 166 163 166 167 166 171
49 31 355 9 76 81 54 66 59 26 2 355 341 331 325 318 318 322 323 324 325 326 329 331 327 323 321 202 185 190 179 156 152 155 162 166 169 169 169 173 175 177 179 185
95 6 313 310 102 78 77 72 39 17 356 339 332 328 326 318 317 317 317 319 320 321 321 323 318 301 270 232 221 201 172 161 162 169 172 173 176 177 178 181 181 184 188 193
81 13 297 269 41 28 59 32 8 350 341 334 329 324 319 316 313 314 313 313 315 316 316 310 300 292 276 240 226 200 174 168 175 178 179 179 182 182 187 191 195 194 197 199
137 98 316 355 38 346 321 347 345 337 332 328 323 318 316 313 309 310 310 312 314 315 314 307 298 293 284 256 234 209 186 181 185 189 187 186 187 188 188 190 203 212 208 214
Height
1473 1475 1474 1474 1475 1473 1477 1481 1486 1486 1488 1495 1499 1501 1500 1500 1500 1501 1503 1505 1507 1510 1512 1514 1516 1518 1521 1524 1526 1529 1531 1534 1536 1539 1541 1544 1546 1549 1550 1552 1554 1555 1556 1557
1476 1475 1473 1472 1473 1474 1476 1479 1481 1484 1487 1492 1496 1498 1497 1497 1497 1498 1500 1502 1505 1507 1509 1511 1513 1516 1519 1521 1524 1526 1529 1531 1534 1536 1539 1541 1544 1546 1548 1549 1551 1552 1553 1554
1474 1473 1472 1472 1473 1475 1474 1476 1479 1484 1488 1490 1494 1498 1495 1492 1493 1495 1496 1499 1501 1503 1506 1508 1510 1513 1516 1518 1521 1523 1526 1529 1532 1534 1537 1539 1541 1543 1545 1546 1548 1549 1550 1550
1474 1473 1472 1473 1474 1472 1474 1471 1474 1481 1490 1495 1494 1502 1490 1486 1488 1489 1491 1494 1497 1500 1502 1504 1506 1509 1513 1515 1518 1520 1523 1526 1528 1531 1533 1535 1537 1539 1541 1543 1544 1545 1546 1546
1475 1473 1473 1474 1473 1472 1472 1471 1475 1481 1487 1491 1492 1497 1486 1478 1484 1484 1486 1489 1492 1496 1498 1501 1503 1506 1509 1512 1515 1517 1520 1523 1525 1528 1530 1532 1534 1536 1537 1539 1540 1541 1541 1542
1476 1476 1476 1475 1474 1474 1473 1476 1480 1484 1490 1501 1492 1495 1489 1478 1477 1478 1480 1484 1488 1491 1495 1497 1500 1503 1506 1509 1512 1514 1517 1519 1521 1524 1526 1528 1530 1532 1534 1535 1536 1537 1537 1537
1479 1480 1479 1477 1478 1478 1478 1486 1497 1502 1504 1501 1485 1489 1486 1474 1474 1476 1479 1481 1484 1488 1491 1494 1497 1500 1503 1506 1508 1511 1513 1515 1518 1520 1522 1524 1526 1528 1530 1531 1532 1532 1532 1532
1482 1485 1482 1480 1480 1481 1481 1483 1494 1500 1504 1497 1486 1491 1482 1474 1475 1477 1480 1481 1483 1486 1489 1491 1494 1496 1499 1502 1505 1507 1509 1511 1513 1516 1518 1521 1523 1524 1525 1527 1527 1527 1527 1527
1478 1484 1483 1482 1482 1481 1483 1485 1484 1489 1486 1493 1492 1483 1476 1474 1476 1479 1480 1482 1484 1486 1488 1490 1492 1494 1496 1498 1501 1503 1506 1507 1510 1512 1515 1517 1519 1520 1521 1522 1523 1523 1522 1522
1474 1483 1484 1484 1484 1484 1483 1482 1489 1495 1494 1494 1486 1484 1483 1478 1478 1479 1481 1483 1485 1486 1487 1489 1490 1491 1493 1495 1497 1500 1502 1504 1506 1509 1511 1513 1514 1516 1517 1518 1518 1518 1517 1517
1473 1481 1487 1487 1487 1486 1486 1487 1486 1488 1490 1497 1494 1490 1475 1476 1477 1480 1482 1484 1485 1486 1486 1487 1488 1489 1490 1492 1493 1496 1498 1501 1503 1506 1508 1510 1511 1513 1513 1513 1513 1513 1512 1512
1474 1480 1487 1487 1486 1486 1485 1484 1486 1495 1497 1492 1497 1495 1475 1477 1478 1480 1482 1484 1485 1485 1485 1486 1486 1487 1487 1489 1491 1493 1495 1497 1500 1503 1505 1506 1508 1509 1509 1509 1508 1508 1507 1507
1475 1482 1491 1493 1493 1489 1486 1484 1484 1488 1494 1496 1498 1494 1478 1478 1479 1481 1482 1483 1484 1484 1484 1484 1484 1484 1485 1486 1488 1490 1492 1495 1497 1499 1501 1503 1504 1504 1504 1504 1504 1503 1502 1502
1477 1479 1485 1487 1484 1483 1485 1484 1484 1490 1500 1496 1492 1487 1481 1480 1480 1481 1481 1482 1483 1483 1483 1482 1482 1482 1482 1483 1485 1487 1489 1492 1494 1496 1498 1499 1500 1500 1500 1499 1499 1498 1498 1498
1479 1482 1484 1482 1479 1479 1481 1482 1483 1488 1490 1492 1486 1483 1481 1480 1481 1481 1481 1481 1482 1482 1481 1480 1480 1479 1480 1481 1482 1484 1486 1488 1491 1493 1494 1495 1496 1496 1495 1495 1494 1494 1494 1494
1481 1484 1486 1487 1482 1482 1483 1482 1481 1482 1483 1484 1485 1484 1481 1480 1480 1481 1481 1481 1481 1481 1480 1478 1477 1477 1476 1477 1478 1480 1482 1485 1487 1489 1490 1491 1491 1491 1491 1490 1490 1490 1490 1490
1483 1485 1489 1487 1482 1483 1487 1479 1479 1479 1479 1481 1484 1484 1482 1482 1482 1482 1482 1481 1480 1479 1477 1475 1474 1473 1473 1473 1474 1476 1478 1481 1482 1484 1485 1486 1487 1487 1486 1486 1486 1486 1487 1487
1483 1485 1490 1489 1488 1494 1484 1478 1478 1479 1480 1481 1482 1483 1484 1484 1483 1481 1481 1480 1478 1477 1474 1472 1470 1469 1468 1469 1470 1472 1473 1475 1478 1479 1481 1482 1482 1482 1482 1482 1482 1483 1484 1484
1482 1484 1486 1489 1487 1482 1482 1480 1480 1482 1484 1485 1485 1485 1485 1484 1481 1480 1479 1478 1477 1474 1471 1469 1467 1465 1464 1464 1465 1467 1468 1470 1473 1474 1476 1477 1477 1477 1477 1477 1478 1479 1480 1481
1482 1483 1487 1486 1489 1484 1487 1483 1482 1484 1488 1489 1488 1488 1487 1485 1485 1481 1479 1477 1474 1471 1468 1465 1463 1461 1460 1460 1461 1462 1464 1466 1468 1469 1471 1472 1472 1472 1473 1474 1475 1476 1477 1478
1485 1485 1488 1488 1487 1484 1489 1484 1484 1489 1494 1492 1490 1489 1488 1487 1487 1483 1479 1475 1472 1469 1465 1462 1460 1458 1458 1457 1458 1458 1460 1461 1464 1465 1466 1467 1468 1468 1469 1470 1471 1473 1474 1476
1484 1485 1485 1485 1488 1493 1490 1487 1491 1495 1493 1492 1491 1489 1488 1486 1483 1480 1477 1473 1470 1466 1463 1460 1458 1456 1455 1455 1455 1455 1456 1458 1459 1461 1462 1463 1464 1465 1465 1467 1468 1469 1471 1472
1486 1490 1489 1490 1493 1492 1491 1492 1494 1493 1493 1491 1490 1488 1486 1483 1480 1477 1474 1470 1467 1464 1461 1459 1456 1454 1453 1452 1452 1452 1453 1454 1455 1457 1458 1459 1460 1461 1462 1463 1465 1466 1467 1469
1489 1490 1490 1489 1489 1491 1491 1492 1493 1492 1491 1490 1488 1486 1483 1481 1477 1474 1471 1468 1465 1462 1460 1457 1455 1453 1451 1450 1450 1450 1450 1451 1452 1453 1454 1455 1456 1457 1458 1459 1461 1462 1464 1465
1490 1490 1490 1490 1490 1491 1491 1492 1491 1490 1489 1487 1485 1483 1480 1477 1474 1471 1468 1465 1462 1459 1457 1455 1452 1450 1449 1448 1448 1447 1448 1448 1449 1450 1451 1451 1452 1453 1454 1456 1457 1458 1460 1462
1490 1492 1493 1493 1493 1493 1492 1491 1489 1488 1486 1484 1481 1478 1476 1474 1471 1468 1465 1462 1459 1456 1453 1451 1449 1447 1446 1445 1444 1444 1444 1444 1445 1445 1446 1447 1448 1449 1450 1452 1453 1454 1456 1458